sat.trackr.live / text

‹ back to catalog

STARLINK-35706

NORAD 67051 · 2025-294X

PAYLOAD ACTIVE UNKNOWN

§ Identity

Operator
Country
US
Launch date
2025-12-11
Launch site
AFETR
Launch vehicle
Mass (kg)
RCS (m²)

Purposes: comms

External: N2YO · Heavens-Above · Gunter

§ Orbital elements

Epoch: 2026-05-24T21:27:37.725696Z

Period
94.27 min
Inclination
42.9986°
Eccentricity
0.0000350
Mean motion
15.27592033 rev/d
Perigee alt
482.8 km
Apogee alt
483.3 km
Semi-major
6,861.2 km
B*
7.4391e-4
RAAN
327.7145°
Arg perigee
247.1177°
Mean anomaly
112.9637°
Rev number
2,645

§ Raw data

STARLINK-357061 67051U 25294X   26144.89418664  .00020273  00000+0  74391-3 0  99942 67051  42.9986 327.7145 0000350 247.1177 112.9637 15.27592033 26458

JSON: /api/v1/satellites/67051 · /tle

For live sub-satellite position, see the globe view (requires WebGL).

§ Visibility from observer

Set your observer location to see the next 7 days of passes ≥ 10°. The values pass through the URL so the page stays shareable.

No JS? Fill the form by hand. The geolocation button needs JavaScript.